[[{"header":{"parameterUnit":"m.s-1","parameterCategory":1,"la1":30.2991,"la2":30.254,"lo1":-89.0895,"lo2":-89.0444,"dy":0.0017,"dx":0.0017,"nx":28,"ny":28,"refTime":"2025-03-25T09:00:00:Z","depth":0,"parameterNumber":2,"parameterNumberName":"U-component_of_WINDS"},"data":[0,0,0,0,0,0,0,0,0,0,0,0,0,0,0,0,0,0,0,0,0,0,0,0,0,0,0,0,0,0,0,0,0,0,0,0,0,0,0,0,0,0,0,0,0,0,0,0,0,0,0,0,0,0,0,0,0,0,1.3352,1.3353,0,1.3457,1.3459,1.346,1.3481,1.348,1.3479,1.3478,1.3586,1.359,1.3594,0,0,0,0,0,0,0,0,0,0,0,0,0,1.3166,1.3169,1.3352,1.3353,1.3354,1.3457,1.3459,1.346,1.3481,1.348,1.3479,1.3478,1.3585,1.359,1.3594,0,0,0,0,0,0,0,0,0,0,0,0,0,1.3257,1.317,1.3351,1.3377,1.338,1.3457,1.3459,1.3461,1.3481,1.348,1.3479,1.3477,1.3584,1.3589,1.3595,1.3653,0,0,1.3611,1.3614,0,0,0,0,0,0,0,0,1.3251,1.3263,1.3372,1.3375,1.3379,1.3455,1.3433,1.3525,1.3481,1.3443,1.3478,1.3477,1.3544,1.3552,1.3575,1.3658,1.3663,1.3612,1.3615,1.3617,1.3619,0,0,0,0,0,0,0,1.3245,1.3259,1.3393,1.3373,1.3378,1.3383,1.3394,1.345,1.3499,1.3446,1.3448,1.346,1.3545,1.3569,1.3578,1.3664,1.3612,1.3616,1.362,1.3622,1.3799,1.38,0,0,0,0,0,0,1.3234,1.3254,1.339,1.3397,1.3311,1.3387,1.34,1.3432,1.3498,1.3507,1.3461,1.3461,1.3561,1.3571,1.3581,1.3653,1.3617,1.3623,1.3626,1.3798,1.3799,1.3801,0,0,0,0,0,0,1.323,1.3246,1.3386,1.3326,1.3344,1.3392,1.3427,1.3434,1.3459,1.351,1.3518,1.3477,1.356,1.3574,1.3635,1.3657,1.3625,1.363,1.3796,1.3798,1.38,1.3797,0,0,0,0,0,0,1.3225,1.3245,1.3268,1.3326,1.3347,1.3438,1.3428,1.3437,1.3468,1.3468,1.3527,1.3535,1.356,1.3626,1.364,1.3664,1.3634,1.3794,1.3797,1.3799,1.3796,1.3799,1.3802,0,0,0,0,0,1.3218,1.3263,1.3269,1.3285,1.3377,1.3439,1.3451,1.3479,1.347,1.3493,1.3525,1.3533,1.3652,1.3632,1.3648,1.3674,1.3793,1.3796,1.3799,1.3794,1.3798,1.3802,0,0,0,0,0,0,1.3207,1.3271,1.3278,1.3344,1.3386,1.3442,1.3473,1.3483,1.3528,1.3527,1.3559,1.3572,1.3631,1.3659,1.3635,1.3733,1.3722,1.3728,1.3713,1.3717,1.372,1.3712,1.3639,0,0,0,0,0,1.3212,1.3257,1.3311,1.3363,1.3384,1.3425,1.3453,1.347,1.3515,1.3533,1.357,1.3613,1.366,1.369,1.3737,1.38,1.3812,1.3825,1.3828,1.3831,1.3836,1.387,1.3876,1.3811,1.3811,1.3811,0,0,1.3223,1.3264,1.329,1.3362,1.3397,1.3442,1.3439,1.3488,1.3522,1.3541,1.36,1.3628,1.3678,1.374,1.377,1.3765,1.3856,1.3835,1.3836,1.384,1.3874,1.388,1.3885,1.3814,1.3813,1.3813,0,0,1.3266,1.3302,1.3348,1.3383,1.3435,1.3462,1.3473,1.3528,1.3547,1.3608,1.3622,1.3663,1.3743,1.3778,1.3806,1.386,1.3869,1.3874,1.3891,1.3924,1.3929,1.3933,1.3952,1.3958,1.3879,1.3879,1.3879,0,1.3272,1.3342,1.3371,1.3419,1.3449,1.3468,1.3515,1.3547,1.3612,1.3632,1.3626,1.3727,1.3762,1.3831,1.3844,1.3867,1.388,1.3868,1.3926,1.3931,1.3935,1.3953,1.396,1.388,1.388,1.388,1.388,0,1.3347,1.3395,1.3427,1.3488,1.3522,1.3569,1.3605,1.3636,1.365,1.3677,1.3737,1.378,1.3834,1.3852,1.3867,1.3923,1.3919,1.3919,1.3909,1.3941,1.3958,1.3966,1.388,1.388,1.388,1.388,0,0,1.3386,1.3462,1.3473,1.3501,1.3559,1.3597,1.3644,1.3697,1.3722,1.3766,1.3806,1.3873,1.3873,1.3905,1.3924,1.3953,1.3991,1.3949,1.3951,1.3954,1.4054,1.4053,1.406,1.3997,1.3999,1.4,1.405,0,1.3435,1.3521,1.3548,1.3619,1.3663,1.368,1.3721,1.3761,1.3787,1.3828,1.3857,1.3903,1.39,1.3919,1.3949,1.398,1.4011,1.3977,1.4034,1.4036,1.402,1.407,1.4069,1.4114,1.4057,1.4058,1.4059,0,1.3504,1.3548,1.3624,1.3675,1.3695,1.3731,1.3781,1.382,1.3865,1.3882,1.3917,1.3933,1.3982,1.3969,1.4037,1.4013,1.4037,1.4056,1.4059,1.4064,1.4048,1.4076,1.4129,1.4135,1.407,1.4069,1.4068,0,1.3523,1.3602,1.3657,1.368,1.3742,1.3767,1.3794,1.3838,1.3867,1.3911,1.393,1.3979,1.4005,1.4042,1.4071,1.4059,1.4136,1.4125,1.415,1.4149,1.4165,1.4164,1.4222,1.4183,1.4182,1.4182,1.4182,0,1.3575,1.362,1.3666,1.3699,1.375,1.378,1.3829,1.3857,1.3896,1.3934,1.3953,1.3989,1.4025,1.4065,1.4088,1.414,1.4152,1.4166,1.4172,1.4164,1.4162,1.418,1.4178,1.4184,1.4184,1.4183,1.4183,0,1.3604,1.3637,1.3698,1.3751,1.3766,1.3801,1.3846,1.3879,1.3905,1.3954,1.3967,1.4008,1.4057,1.4089,1.4151,1.4166,1.4222,1.4227,1.4207,1.4209,1.4232,1.4229,1.4303,1.4314,1.4268,1.4269,1.4269,0,1.3635,1.367,1.3726,1.3754,1.3781,1.3824,1.3855,1.3885,1.3916,1.3969,1.3995,1.4045,1.4086,1.4162,1.4197,1.4244,1.425,1.4273,1.4257,1.4248,1.4249,1.4246,1.4249,1.4275,1.4276,1.4276,1.4276,0,1.3684,1.3698,1.3741,1.379,1.3825,1.3865,1.3904,1.3925,1.3963,1.3996,1.4045,1.4077,1.414,1.4188,1.4238,1.4266,1.4277,1.4281,1.4289,1.4281,1.4267,1.4274,1.4212,1.4279,1.4279,1.4278,1.4278,1.4278,1.3715,1.3746,1.379,1.3837,1.387,1.3906,1.3939,1.397,1.4011,1.4065,1.408,1.4131,1.4174,1.4243,1.4271,1.4311,1.4308,1.4321,1.4323,1.4326,1.4325,1.4261,1.432,1.432,1.432,1.432,1.432,0,1.3764,1.3793,1.3836,1.389,1.3927,1.3934,1.3978,1.4008,1.4053,1.4092,1.4132,1.4188,1.4235,1.4273,1.4321,1.4346,1.4352,1.4357,1.4355,1.4361,1.4325,1.4313,1.4351,1.4351,1.4351,1.4351,1.4351,1.4351,1.3794,1.3847,1.3866,1.3935,1.3964,1.4015,1.4039,1.4072,1.4103,1.4165,1.4204,1.4229,1.4267,1.4318,1.4361,1.4371,1.4387,1.4391,1.4402,1.4368,1.4364,1.4361,1.4349,1.4395,1.4395,1.4435,1.4436,1.4436]},{"header":{"parameterUnit":"m.s-1","parameterCategory":1,"la1":30.2991,"la2":30.254,"lo1":-89.0895,"lo2":-89.0444,"dy":0.0017,"dx":0.0017,"nx":28,"ny":28,"refTime":"2025-03-25T09:00:00:Z","depth":0,"parameterNumber":3,"parameterNumberName":"V-component_of_WINDS"},"data":[0,0,0,0,0,0,0,0,0,0,0,0,0,0,0,0,0,0,0,0,0,0,0,0,0,0,0,0,0,0,0,0,0,0,0,0,0,0,0,0,0,0,0,0,0,0,0,0,0,0,0,0,0,0,0,0,0,0,2.9741,2.974,0,2.972,2.972,2.972,2.9663,2.9662,2.9661,2.966,2.964,2.964,2.9641,0,0,0,0,0,0,0,0,0,0,0,0,0,2.9732,2.9732,2.9741,2.974,2.974,2.972,2.972,2.972,2.9663,2.9662,2.966,2.9659,2.9639,2.964,2.9641,0,0,0,0,0,0,0,0,0,0,0,0,0,2.9726,2.9732,2.9741,2.971,2.9707,2.972,2.972,2.972,2.9664,2.9662,2.966,2.9658,2.9639,2.964,2.9641,2.9683,0,0,2.9644,2.9644,0,0,0,0,0,0,0,0,2.9726,2.9726,2.9715,2.9712,2.9709,2.9692,2.9709,2.9707,2.9664,2.968,2.966,2.9657,2.9659,2.9658,2.9658,2.9682,2.9682,2.9644,2.9644,2.9645,2.9645,0,0,0,0,0,0,0,2.9727,2.9727,2.9733,2.9714,2.9711,2.9697,2.9694,2.9709,2.968,2.9679,2.9674,2.9673,2.9657,2.9657,2.9657,2.9681,2.9644,2.9645,2.9645,2.9646,2.9739,2.9741,0,0,0,0,0,0,2.9732,2.9728,2.9733,2.9732,2.9713,2.9699,2.9695,2.9699,2.968,2.9675,2.9674,2.967,2.9657,2.9656,2.9656,2.9704,2.9645,2.9646,2.9646,2.9737,2.9739,2.9741,0,0,0,0,0,0,2.9732,2.9733,2.9734,2.9729,2.9728,2.9701,2.9706,2.97,2.97,2.9676,2.9671,2.968,2.9655,2.9655,2.9677,2.9703,2.9646,2.9647,2.9735,2.9738,2.974,2.9801,0,0,0,0,0,0,2.9732,2.9733,2.9749,2.9729,2.9728,2.9755,2.9707,2.9701,2.9702,2.9696,2.9681,2.9676,2.9654,2.9676,2.9678,2.9703,2.9648,2.9732,2.9736,2.9739,2.9796,2.9805,2.9813,0,0,0,0,0,2.9732,2.9767,2.975,2.9751,2.9747,2.9757,2.9756,2.9729,2.9704,2.972,2.9704,2.9677,2.97,2.9679,2.968,2.9706,2.973,2.9735,2.9739,2.9793,2.9804,2.9813,0,0,0,0,0,0,2.9791,2.9764,2.9745,2.9775,2.9768,2.9747,2.9766,2.9742,2.9743,2.9737,2.9704,2.9701,2.9728,2.9719,2.9696,2.9746,2.971,2.9715,2.9751,2.9761,2.9769,2.9771,2.9648,0,0,0,0,0,2.9807,2.9817,2.9793,2.9822,2.9819,2.9793,2.9796,2.9776,2.9768,2.9766,2.9752,2.9745,2.9751,2.9755,2.9759,2.9795,2.979,2.9813,2.9822,2.9829,2.9834,2.9851,2.9861,2.9756,2.9755,2.9755,0,0,2.9842,2.9828,2.9836,2.9833,2.9826,2.9837,2.9792,2.9805,2.9812,2.9768,2.9787,2.9777,2.9767,2.9796,2.9808,2.979,2.9862,2.9834,2.984,2.9841,2.9857,2.9867,2.9876,2.9758,2.9758,2.9757,0,0,2.9909,2.99,2.9923,2.9916,2.9906,2.9888,2.9893,2.9876,2.9867,2.9886,2.9852,2.9861,2.9872,2.9866,2.9865,2.993,2.9905,2.9932,2.9976,2.9994,3.0002,3.001,3.0033,3.0041,2.9937,2.9937,2.9937,0,2.9954,2.9968,2.9938,2.9953,2.9953,2.9912,2.9935,2.993,2.9922,2.9923,2.9902,2.9914,2.9905,2.9932,2.9948,2.9948,2.9953,2.9934,3.0003,3.001,3.0017,3.0038,3.0047,2.9941,2.994,2.994,2.994,0,3.0023,3.0033,3.0053,3.0045,3.0047,3.0066,3.0039,3.0045,3.0024,3.0009,3.0029,3.0016,3.0017,3.0022,3.0002,3.0046,3.0034,3.0009,2.9973,3.0031,3.0051,3.0059,2.9946,2.9944,2.9943,2.9942,0,0,3.0128,3.0102,3.011,3.0106,3.009,3.0098,3.0115,3.0115,3.0121,3.0116,3.0129,3.0139,3.0115,3.0114,3.0093,3.0109,3.0161,3.0082,3.0081,3.0097,3.0208,3.0227,3.0237,3.0144,3.0146,3.0147,3.0209,0,3.0192,3.0219,3.0193,3.0226,3.0235,3.0196,3.0211,3.0203,3.0189,3.0195,3.018,3.0187,3.0155,3.0154,3.0168,3.0152,3.0183,3.0147,3.0157,3.0157,3.016,3.0248,3.0268,3.0327,3.0217,3.0218,3.0219,0,3.027,3.0268,3.0302,3.0284,3.0287,3.0301,3.0298,3.0304,3.0295,3.0284,3.0282,3.0257,3.0272,3.0237,3.0258,3.0234,3.0236,3.0229,3.0231,3.0231,3.0192,3.025,3.0346,3.0355,3.0231,3.023,3.0229,0,3.0343,3.0349,3.037,3.0367,3.0347,3.0358,3.035,3.0338,3.034,3.0338,3.0338,3.0339,3.0339,3.034,3.0315,3.0292,3.0339,3.0302,3.033,3.0331,3.0342,3.0342,3.044,3.0344,3.0344,3.0344,3.0344,0,3.0417,3.044,3.0402,3.0415,3.0439,3.0408,3.0432,3.042,3.0411,3.042,3.0387,3.0397,3.0364,3.0371,3.0352,3.0372,3.0373,3.0364,3.0359,3.0367,3.0368,3.0368,3.0363,3.0346,3.0346,3.0345,3.0345,0,3.0503,3.0479,3.0499,3.0478,3.0473,3.0492,3.0473,3.0484,3.0468,3.0481,3.0482,3.0457,3.0463,3.0438,3.044,3.0427,3.0458,3.0445,3.0461,3.0457,3.0487,3.0485,3.0588,3.06,3.0497,3.0498,3.0499,0,3.0552,3.0568,3.0548,3.0552,3.0546,3.0553,3.0554,3.0524,3.0527,3.0517,3.0529,3.0533,3.0533,3.0545,3.0527,3.0528,3.0516,3.0552,3.0516,3.0523,3.0516,3.0515,3.0517,3.056,3.0561,3.0562,3.0563,0,3.0642,3.0629,3.0631,3.063,3.0632,3.063,3.0625,3.0631,3.0598,3.0603,3.0608,3.0609,3.0611,3.0614,3.0612,3.0604,3.0578,3.0574,3.0581,3.0589,3.0598,3.0594,3.0481,3.0572,3.0571,3.057,3.057,3.0569,3.071,3.0723,3.071,3.0714,3.0708,3.0704,3.0713,3.0697,3.0701,3.07,3.0682,3.0691,3.0681,3.0675,3.0669,3.0676,3.0659,3.0669,3.0671,3.0674,3.0679,3.0597,3.0675,3.0675,3.0675,3.0674,3.0674,0,3.0798,3.0788,3.0792,3.0786,3.0789,3.0764,3.0758,3.0762,3.077,3.0762,3.0764,3.077,3.0773,3.0755,3.0756,3.0765,3.0753,3.0766,3.0765,3.0763,3.0694,3.0688,3.0775,3.0775,3.0775,3.0775,3.0775,3.0775,3.0844,3.0863,3.0849,3.0864,3.0854,3.0862,3.0861,3.0857,3.085,3.0859,3.0861,3.0849,3.0837,3.0836,3.0838,3.0833,3.0835,3.0852,3.0842,3.0778,3.0768,3.0759,3.0753,3.0852,3.0852,3.0911,3.0911,3.0912]}]]